Terminal Aerodrome Forecast
Issued by NWS Melbourne, FL

Home | Current Version | Previous Version | Text Only | Print | Product List | Glossary On
Versions: 1 2 3 4 5 6 7 8 9 10 11 12
000
FTUS42 KMLB 290500 RRA
TAFVRB
TAF
KVRB 290542Z 2906/3006 24006KT P6SM SCT250
     FM291400 26009KT P6SM SCT035 BKN250
     FM291800 26010KT P6SM VCTS SCT040CB BKN250
     FM300200 24007KT P6SM BKN040 BKN250=

USA.gov is the U.S. government's official web portal to all federal, state and local government web resources and services.